TimeCDT,TemperatureF,Dew PointF,Humidity,Sea Level PressureIn,VisibilityMPH,Wind Direction,Wind SpeedMPH,Gust SpeedMPH,PrecipitationIn,Events,Conditions,WindDirDegrees,DateUTC
12:15 AM,71.6,57.2,60,29.90,10.0,SE,11.5,-,N/A,,Scattered Clouds,130,2013-06-15 05:15:00
12:35 AM,69.8,57.2,64,29.92,10.0,South,8.1,-,N/A,,Scattered Clouds,170,2013-06-15 05:35:00
12:55 AM,69.8,59.0,68,29.99,5.0,Calm,Calm,-,0.07,Rain-Thunderstorm,Heavy Thunderstorms and Rain,0,2013-06-15 05:55:00
1:15 AM,64.4,60.8,88,29.93,10.0,East,3.5,-,0.30,Rain-Thunderstorm,Heavy Thunderstorms and Rain,90,2013-06-15 06:15:00
1:35 AM,66.2,60.8,83,29.93,10.0,SSE,3.5,-,0.30,Rain,Light Rain,160,2013-06-15 06:35:00
1:55 AM,66.2,60.8,83,29.92,10.0,SE,4.6,-,0.30,,Mostly Cloudy,130,2013-06-15 06:55:00
2:15 AM,64.4,62.6,94,29.91,10.0,Calm,Calm,-,N/A,Thunderstorm,Thunderstorm,0,2013-06-15 07:15:00
2:35 AM,64.4,62.6,94,29.91,10.0,ESE,3.5,-,0.01,Rain,Light Rain,120,2013-06-15 07:35:00
2:55 AM,66.2,62.6,88,29.90,10.0,ESE,5.8,-,0.01,,Light Drizzle,120,2013-06-15 07:55:00
3:15 AM,66.2,62.6,88,29.91,10.0,SE,6.9,-,N/A,Rain,Rain,140,2013-06-15 08:15:00
3:35 AM,66.2,62.6,88,29.90,10.0,SSE,5.8,-,N/A,,Mostly Cloudy,150,2013-06-15 08:35:00
3:55 AM,66.2,62.6,88,29.89,10.0,SSE,5.8,-,N/A,,Scattered Clouds,150,2013-06-15 08:55:00
4:15 AM,66.2,62.6,88,29.88,10.0,SE,5.8,-,N/A,,Scattered Clouds,140,2013-06-15 09:15:00
4:35 AM,66.2,62.6,88,29.88,10.0,SE,4.6,-,N/A,,Mostly Cloudy,140,2013-06-15 09:35:00
4:55 AM,66.2,62.6,88,29.88,10.0,SSE,3.5,-,N/A,,Overcast,150,2013-06-15 09:55:00
5:15 AM,66.2,62.6,88,29.88,10.0,SE,5.8,-,N/A,,Mostly Cloudy,140,2013-06-15 10:15:00
5:35 AM,66.2,62.6,88,29.88,10.0,SE,5.8,-,N/A,,Mostly Cloudy,140,2013-06-15 10:35:00
5:55 AM,66.2,62.6,88,29.89,10.0,SSE,5.8,-,N/A,,Overcast,150,2013-06-15 10:55:00
6:15 AM,66.2,62.6,88,29.89,10.0,SE,6.9,-,N/A,,Overcast,140,2013-06-15 11:15:00
6:35 AM,66.2,62.6,88,29.89,10.0,SE,3.5,-,N/A,,Scattered Clouds,140,2013-06-15 11:35:00
6:55 AM,66.2,62.6,88,29.90,10.0,SE,5.8,-,N/A,,Scattered Clouds,140,2013-06-15 11:55:00
7:15 AM,66.2,62.6,88,29.90,10.0,SE,5.8,-,N/A,,Scattered Clouds,140,2013-06-15 12:15:00
7:35 AM,66.2,62.6,88,29.90,10.0,SE,5.8,-,N/A,,Clear,130,2013-06-15 12:35:00
7:55 AM,68.0,62.6,83,29.90,10.0,SE,5.8,-,N/A,,Clear,140,2013-06-15 12:55:00
8:15 AM,69.8,62.6,78,29.89,10.0,SSE,5.8,-,N/A,,Clear,150,2013-06-15 13:15:00
8:35 AM,69.8,64.4,83,29.89,10.0,South,5.8,-,N/A,,Clear,170,2013-06-15 13:35:00
8:55 AM,71.6,64.4,78,29.90,10.0,South,4.6,-,N/A,,Clear,170,2013-06-15 13:55:00
9:15 AM,73.4,64.4,73,29.90,10.0,SSW,5.8,-,N/A,,Clear,200,2013-06-15 14:15:00
9:35 AM,73.4,64.4,73,29.90,10.0,SSW,4.6,-,N/A,,Clear,210,2013-06-15 14:35:00
9:55 AM,73.4,64.4,73,29.90,10.0,SSW,8.1,-,N/A,,Clear,200,2013-06-15 14:55:00
10:15 AM,75.2,66.2,73,29.89,10.0,SSW,6.9,-,N/A,,Clear,200,2013-06-15 15:15:00
10:35 AM,75.2,66.2,73,29.90,10.0,South,4.6,-,N/A,,Scattered Clouds,190,2013-06-15 15:35:00
10:55 AM,77.0,64.4,65,29.89,10.0,SW,5.8,-,N/A,,Scattered Clouds,220,2013-06-15 15:55:00
11:15 AM,77.0,66.2,69,29.88,10.0,SW,3.5,-,N/A,,Clear,230,2013-06-15 16:15:00
11:35 AM,77.0,66.2,69,29.87,10.0,SSW,3.5,-,N/A,,Scattered Clouds,200,2013-06-15 16:35:00
11:55 AM,77.0,66.2,69,29.89,10.0,SW,6.9,-,N/A,,Scattered Clouds,220,2013-06-15 16:55:00
12:15 PM,75.2,66.2,73,29.91,10.0,SSW,6.9,-,N/A,,Scattered Clouds,200,2013-06-15 17:15:00
12:35 PM,75.2,66.2,73,29.92,10.0,SW,8.1,-,N/A,,Mostly Cloudy,220,2013-06-15 17:35:00
12:55 PM,75.2,66.2,73,29.91,10.0,SW,4.6,-,N/A,,Scattered Clouds,220,2013-06-15 17:55:00
1:15 PM,77.0,66.2,69,29.89,10.0,SW,4.6,-,N/A,,Scattered Clouds,220,2013-06-15 18:15:00
1:35 PM,78.8,66.2,65,29.89,10.0,SW,5.8,-,N/A,,Scattered Clouds,220,2013-06-15 18:35:00
1:55 PM,78.8,66.2,65,29.88,10.0,SW,10.4,16.1,N/A,,Scattered Clouds,230,2013-06-15 18:55:00
2:15 PM,77.0,66.2,69,29.87,10.0,WSW,9.2,-,N/A,,Scattered Clouds,240,2013-06-15 19:15:00
2:35 PM,77.0,64.4,65,29.87,10.0,WSW,9.2,-,N/A,,Clear,240,2013-06-15 19:35:00
2:55 PM,75.2,64.4,69,29.87,10.0,SW,9.2,-,N/A,,Scattered Clouds,220,2013-06-15 19:55:00
3:15 PM,75.2,66.2,73,29.86,10.0,West,8.1,-,N/A,Rain,Light Rain,260,2013-06-15 20:15:00
3:35 PM,75.2,66.2,73,29.87,10.0,West,11.5,-,N/A,Rain,Light Rain,270,2013-06-15 20:35:00
3:55 PM,75.2,66.2,73,29.84,10.0,West,12.7,18.4,N/A,Rain-Thunderstorm,Light Thunderstorms and Rain,260,2013-06-15 20:55:00
4:15 PM,75.2,66.2,73,29.83,10.0,West,9.2,-,N/A,Rain,Light Rain,280,2013-06-15 21:15:00
4:35 PM,73.4,66.2,78,29.85,10.0,WNW,10.4,17.3,N/A,Rain,Light Rain,290,2013-06-15 21:35:00
4:55 PM,73.4,66.2,78,29.85,10.0,NNW,11.5,19.6,N/A,Rain,Light Rain,340,2013-06-15 21:55:00
5:15 PM,69.8,62.6,78,29.84,10.0,North,11.5,19.6,N/A,,Scattered Clouds,350,2013-06-15 22:15:00
5:35 PM,69.8,62.6,78,29.83,10.0,North,8.1,-,N/A,,Clear,360,2013-06-15 22:35:00
5:55 PM,71.6,60.8,69,29.83,10.0,NNE,5.8,-,N/A,,Scattered Clouds,20,2013-06-15 22:55:00
6:15 PM,71.6,60.8,69,29.83,10.0,Calm,Calm,-,N/A,,Mostly Cloudy,0,2013-06-15 23:15:00
6:35 PM,73.4,60.8,65,29.84,10.0,Calm,Calm,-,N/A,,Mostly Cloudy,0,2013-06-15 23:35:00
6:55 PM,73.4,60.8,65,29.84,10.0,WSW,5.8,-,N/A,,Scattered Clouds,240,2013-06-15 23:55:00
7:15 PM,73.4,60.8,65,29.84,10.0,WSW,4.6,-,N/A,,Clear,250,2013-06-16 00:15:00
7:35 PM,73.4,62.6,69,29.85,10.0,SW,3.5,-,N/A,,Clear,220,2013-06-16 00:35:00
7:55 PM,73.4,60.8,65,29.84,10.0,Calm,Calm,-,N/A,,Clear,0,2013-06-16 00:55:00
8:15 PM,71.6,62.6,73,29.85,10.0,SSE,3.5,-,N/A,,Clear,150,2013-06-16 01:15:00
8:35 PM,69.8,62.6,78,29.86,10.0,SSE,3.5,-,N/A,,Clear,150,2013-06-16 01:35:00
8:55 PM,68.0,62.6,83,29.86,10.0,Calm,Calm,-,N/A,,Clear,0,2013-06-16 01:55:00
9:15 PM,66.2,62.6,88,29.86,10.0,Calm,Calm,-,N/A,,Clear,0,2013-06-16 02:15:00
9:35 PM,64.4,62.6,94,29.87,10.0,Calm,Calm,-,N/A,,Clear,0,2013-06-16 02:35:00
9:55 PM,62.6,60.8,94,29.87,10.0,Calm,Calm,-,N/A,,Clear,0,2013-06-16 02:55:00
10:15 PM,62.6,60.8,94,29.87,10.0,Calm,Calm,-,N/A,,Clear,0,2013-06-16 03:15:00
10:35 PM,62.6,60.8,94,29.88,7.0,North,3.5,-,N/A,,Clear,350,2013-06-16 03:35:00
10:55 PM,62.6,60.8,94,29.88,10.0,NW,3.5,-,N/A,,Clear,310,2013-06-16 03:55:00
11:14 PM,62.6,60.8,94,29.88,10.0,Calm,Calm,-,N/A,,Clear,0,2013-06-16 04:14:00
11:35 PM,60.8,59.0,94,29.88,10.0,Calm,Calm,-,N/A,,Clear,0,2013-06-16 04:35:00
11:55 PM,60.8,59.0,94,29.88,10.0,NNW,3.5,-,N/A,,Clear,330,2013-06-16 04:55:00